Weather History for Pagosa Springs, CO

Change the Weather History Date:

Friday, March 29, 2013

  Actual Average (KDRO) Record (KDRO)
Temperature  
Mean Temperature 42 °F 41 °F  
Max Temperature 57 °F 56 °F 71 °F (1978)
Min Temperature 28 °F 26 °F 4 °F (1984)
Degree Days  
Heating Degree Days 22 24  
Month to date heating degree days 807  
Since 1 July heating degree days 5982  
Cooling Degree Days 0 0  
Month to date cooling degree days 0  
Year to date cooling degree days 0  
Moisture  
Dew Point 22 °F    
Average Humidity 47    
Maximum Humidity 77    
Minimum Humidity 21    
Precipitation  
Precipitation 0.00 in 0.04 in 0.80 in (1973)
Month to date precipitation 1.17  
Year to date precipitation 3.45  
Sea Level Pressure  
Sea Level Pressure 30.24 in    
Wind  
Wind Speed 2 mph (SE)    
Max Wind Speed 10 mph    
Max Gust Speed -    
Visibility 10 miles    
Events Rain , Thunderstorm    
T = Trace of Precipitation, MM = Missing Value Source: NWS Daily Summary

Daily Weather History Graph

Daily Weather History Graph

Search for Another Location

Airport:

Trip Planner

Search our weather history database for the weather conditions in past years. The results will help you decide how hot, cold, wet, or windy it might be!

Date:

Astronomy

Mar. 29, 2013 Rise Set
Actual Time 6:57 AM MDT 7:28 PM MDT
Civil Twilight 6:31 AM MDT 7:54 PM MDT
Nautical Twilight 6:00 AM MDT 8:25 PM MDT
Astronomical Twilight 5:29 AM MDT 8:57 PM MDT
Moon 10:27 PM MDT (3/29) 8:12 AM MDT (3/29)
Length of Visible Light 13h 23m
Length of Day
12h 30m
Waning Gibbous, 93% of the Moon is Illuminated
Mar 29
Waning Gibbous
Apr 2
Last Quarter
Apr 10
New
Apr 18
First Quarter
Apr 25
Full

Hourly Weather History & Observations

Time (MDT) Temp. Windchill Dew Point Humidity Pressure Visibility Wind Dir Wind Speed Gust Speed Precip Events Conditions
12:15 AM 35.6 °F - 20.5 °F 54% 30.23 in 10.0 mi Calm Calm - N/A   Scattered Clouds
12:35 AM 35.6 °F - 17.4 °F 48% 30.23 in 10.0 mi Calm Calm - N/A   Clear
12:55 AM 34.7 °F - 19.2 °F 53% 30.23 in 10.0 mi Calm Calm - N/A   Clear
1:15 AM 32.7 °F - 19.2 °F 58% 30.23 in 10.0 mi Calm Calm - N/A   Clear
1:35 AM 33.3 °F - 17.4 °F 52% 30.23 in 10.0 mi Calm Calm - N/A   Clear
1:55 AM 35.8 °F - 18.3 °F 49% 30.24 in 10.0 mi Calm Calm - N/A   Clear
2:15 AM 32.9 °F - 18.9 °F 56% 30.24 in 10.0 mi Calm Calm - N/A   Clear
2:35 AM 32.7 °F - 16.7 °F 52% 30.24 in 10.0 mi Calm Calm - N/A   Clear
2:55 AM 32.0 °F - 17.6 °F 55% 30.24 in 10.0 mi Calm Calm - N/A   Clear
3:15 AM 32.4 °F - 17.4 °F 54% 30.23 in 10.0 mi Calm Calm - N/A   Clear
3:35 AM 32.0 °F - 18.9 °F 58% 30.23 in 10.0 mi Calm Calm - N/A   Clear
3:55 AM 31.1 °F - 18.9 °F 61% 30.23 in 10.0 mi Calm Calm - N/A   Clear
4:15 AM 30.6 °F - 21.7 °F 70% 30.23 in 10.0 mi Calm Calm - N/A   Clear
4:35 AM 29.8 °F - 18.5 °F 63% 30.23 in 10.0 mi Calm Calm - N/A   Clear
4:55 AM 30.2 °F - 17.6 °F 60% 30.23 in 10.0 mi Calm Calm - N/A   Clear
5:15 AM 30.0 °F - 18.9 °F 63% 30.23 in 10.0 mi Calm Calm - N/A   Clear
5:35 AM 29.3 °F - 20.1 °F 69% 30.23 in 10.0 mi Calm Calm - N/A   Clear
5:55 AM 29.7 °F - 20.8 °F 70% 30.24 in 10.0 mi Calm Calm - N/A   Clear
6:15 AM 30.2 °F - 19.2 °F 64% 30.25 in 10.0 mi Calm Calm - N/A   Clear
6:35 AM 29.8 °F - 21.4 °F 71% 30.25 in 10.0 mi Calm Calm - N/A   Clear
6:55 AM 28.4 °F - 19.9 °F 71% 30.26 in 10.0 mi Calm Calm - N/A   Clear
7:15 AM 29.7 °F 26.1 °F 20.8 °F 70% 30.26 in 10.0 mi NNE 3.5 mph - N/A   Mostly Cloudy
7:35 AM 33.6 °F 29.4 °F 19.8 °F 57% 30.26 in 10.0 mi North 4.6 mph - N/A   Overcast
7:55 AM 34.7 °F - 19.6 °F 54% 30.27 in 10.0 mi Calm Calm - N/A   Scattered Clouds
8:15 AM 36.7 °F - 18.9 °F 49% 30.27 in 10.0 mi Calm Calm - N/A   Clear
8:35 AM 37.8 °F - 18.7 °F 46% 30.27 in 10.0 mi Calm Calm - N/A   Clear
8:55 AM 39.7 °F - 19.4 °F 44% 30.27 in 10.0 mi Calm Calm - N/A   Clear
9:15 AM 42.6 °F - 20.3 °F 41% 30.27 in 10.0 mi Calm Calm - N/A   Clear
9:35 AM 45.9 °F - 17.1 °F 32% 30.27 in 10.0 mi Calm Calm - N/A   Clear
9:55 AM 47.5 °F - 18.7 °F 32% 30.27 in 10.0 mi Calm Calm - N/A   Clear
10:15 AM 49.5 °F - 14.9 °F 25% 30.26 in 10.0 mi South 5.8 mph - N/A   Clear
10:35 AM 50.7 °F - 14.4 °F 24% 30.26 in 10.0 mi South 5.8 mph - N/A   Clear
10:55 AM 51.6 °F - 14.7 °F 23% 30.26 in 10.0 mi SSW 4.6 mph - N/A   Clear
11:15 AM 52.7 °F - 15.8 °F 23% 30.27 in 10.0 mi South 9.2 mph - N/A   Clear
11:35 AM 53.8 °F - 16.7 °F 23% 30.26 in 10.0 mi SSW 8.1 mph - N/A   Clear
11:55 AM 54.9 °F - 16.9 °F 22% 30.25 in 10.0 mi South 8.1 mph - N/A   Clear
12:15 PM 55.9 °F - 16.9 °F 22% 30.25 in 10.0 mi SSE 3.5 mph - N/A   Mostly Cloudy
12:35 PM 55.4 °F - 16.5 °F 22% 30.24 in 10.0 mi SSE 4.6 mph - N/A   Overcast
12:55 PM 57.4 °F - 17.4 °F 21% 30.23 in 10.0 mi SSE 4.6 mph - N/A   Mostly Cloudy
1:15 PM 56.3 °F - 17.4 °F 22% 30.22 in 10.0 mi SW 4.6 mph - N/A   Overcast
1:35 PM 56.3 °F - 16.7 °F 21% 30.22 in 10.0 mi SW 4.6 mph - N/A   Overcast
1:55 PM 52.0 °F - 25.0 °F 35% 30.24 in 10.0 mi NW 10.4 mph - N/A Rain , Thunderstorm Light Thunderstorms and Rain
2:15 PM 48.7 °F - 31.5 °F 51% 30.24 in 10.0 mi WNW 5.8 mph - N/A   Overcast
2:35 PM 53.6 °F - 30.2 °F 41% 30.24 in 10.0 mi NE 8.1 mph - N/A   Overcast
2:55 PM 53.1 °F - 27.9 °F 38% 30.24 in 10.0 mi NE 8.1 mph - N/A   Overcast
3:15 PM 52.7 °F - 27.9 °F 38% 30.24 in 10.0 mi East 9.2 mph - N/A   Overcast
3:35 PM 52.5 °F - 27.3 °F 38% 30.23 in 10.0 mi ESE 6.9 mph - N/A   Mostly Cloudy
3:55 PM 51.8 °F - 27.1 °F 39% 30.23 in 10.0 mi East 5.8 mph - N/A   Scattered Clouds
4:15 PM 53.4 °F - 26.6 °F 36% 30.23 in 10.0 mi Calm Calm - N/A   Mostly Cloudy
4:35 PM 54.5 °F - 22.8 °F 29% 30.22 in 10.0 mi Calm Calm - N/A   Scattered Clouds
4:55 PM 54.1 °F - 21.9 °F 29% 30.22 in 10.0 mi South 4.6 mph - N/A   Clear
5:15 PM 53.2 °F - 25.0 °F 33% 30.22 in 10.0 mi SSE 6.9 mph - N/A   Scattered Clouds
5:35 PM 54.1 °F - 25.0 °F 32% 30.22 in 10.0 mi South 8.1 mph - N/A   Clear
5:55 PM 54.5 °F - 24.1 °F 31% 30.22 in 10.0 mi SSE 5.8 mph - N/A   Clear
6:15 PM 54.0 °F - 24.3 °F 32% 30.22 in 10.0 mi ESE 3.5 mph - N/A   Clear
6:35 PM 54.5 °F - 24.6 °F 31% 30.22 in 10.0 mi East 3.5 mph - N/A   Scattered Clouds
6:55 PM 53.2 °F - 24.6 °F 33% 30.22 in 10.0 mi Calm Calm - N/A   Overcast
7:15 PM 52.2 °F - 24.6 °F 34% 30.22 in 10.0 mi Calm Calm - N/A   Scattered Clouds
7:35 PM 45.7 °F - 30.9 °F 56% 30.22 in 10.0 mi Calm Calm - N/A   Scattered Clouds
7:55 PM 42.6 °F - 31.8 °F 66% 30.23 in 10.0 mi Calm Calm - N/A   Scattered Clouds
8:15 PM 41.0 °F - 30.0 °F 65% 30.23 in 10.0 mi Calm Calm - N/A   Clear
8:35 PM 43.0 °F - 27.0 °F 53% 30.24 in 10.0 mi Calm Calm - N/A   Scattered Clouds
8:55 PM 41.4 °F 36.8 °F 26.8 °F 56% 30.24 in 10.0 mi NE 6.9 mph - N/A   Scattered Clouds
9:15 PM 39.7 °F 37.6 °F 26.6 °F 59% 30.25 in 10.0 mi NNE 3.5 mph - N/A   Clear
9:35 PM 40.6 °F 37.5 °F 25.3 °F 54% 30.26 in 10.0 mi NE 4.6 mph - N/A   Clear
9:55 PM 38.1 °F - 25.9 °F 61% 30.26 in 10.0 mi Calm Calm - N/A   Clear
10:15 PM 38.3 °F - 25.5 °F 60% 30.27 in 10.0 mi Calm Calm - N/A   Clear
10:35 PM 35.8 °F - 25.9 °F 67% 30.27 in 10.0 mi Calm Calm - N/A   Clear
10:55 PM 35.8 °F 33.0 °F 25.0 °F 65% 30.27 in 10.0 mi NW 3.5 mph - N/A   Clear
11:15 PM 35.8 °F - 24.8 °F 64% 30.27 in 10.0 mi Calm Calm - N/A   Clear
11:35 PM 34.0 °F - 27.5 °F 77% 30.27 in 10.0 mi Calm Calm - N/A   Clear
11:55 PM 34.7 °F - 26.1 °F 71% 30.27 in 10.0 mi Calm Calm - N/A   Clear